Date_and_time,latitude,longitude,wind_speed,RelWindDirFrom,WindDirFrom,air_pressure,air_temperature,relative_humidity,Temp,platform_speed_wrt_ground,air_pressure_at_mean_sea_level,platform_orientation
2019-10-06 00:00,50.6304283333333,-96.980755,8.6,13.0,271,973.75,5.2,92,9.17,0.0,1000.61,90.0
2019-10-06 00:10,50.6304633333333,-96.980775,8.4,13.7,268,973.76,5.0,93,9.16,0.0,1000.64,90.0
2019-10-06 00:20,50.6304333333333,-96.98076,6.9,10.7,267,973.83,4.8,95,9.15,0.0,1000.73,90.0
2019-10-06 00:30,50.6304333333333,-96.98076,6.5,9.6,269,973.87,4.6,95,9.15,0.0,1000.78,90.0
2019-10-06 00:40,50.6304316666667,-96.9807633333333,6.5,11.2,260,973.86,4.4,96,9.16,0.0,1000.78,90.0
2019-10-06 00:50,50.6304333333333,-96.9807633333333,8.3,13.8,261,973.77,4.5,95,9.16,0.0,1000.71,90.0
2019-10-06 01:00,50.6304333333333,-96.9807616666667,7.5,11.0,257,973.69,4.4,95,9.15,0.0,1000.64,12.6
2019-10-06 01:10,50.6304333333333,-96.98076,7.6,12.0,261,973.62,4.3,94,9.15,0.0,1000.57,12.6
2019-10-06 01:20,50.6304333333333,-96.98076,6.4,9.9,266,973.59,4.2,95,9.15,0.0,1000.56,12.6
2019-10-06 01:30,50.6304333333333,-96.9807616666667,6.2,9.9,260,973.56,4.1,96,9.15,0.0,1000.54,12.6
2019-10-06 01:40,50.6304116666667,-96.980775,5.8,11.3,252,973.55,4.0,96,9.15,0.0,1000.54,12.6
2019-10-06 01:50,50.630425,-96.9807633333333,5.9,9.0,254,973.52,4.1,96,9.16,0.0,1000.51,12.6
2019-10-06 02:00,50.6304266666667,-96.9807716666667,7.3,11.6,252,973.44,4.2,96,9.17,0.0,1000.44,345.5
2019-10-06 02:10,50.63043,-96.9807666666667,6.5,11.8,256,973.32,4.3,95,9.16,0.0,1000.32,345.5
2019-10-06 02:20,50.6304316666667,-96.98077,7.0,11.0,253,973.22,4.3,95,9.15,0.0,1000.22,345.5
2019-10-06 02:30,50.6304316666667,-96.9807683333333,6.1,10.5,253,973.23,4.4,95,9.15,0.0,1000.24,345.5
2019-10-06 02:40,50.6304316666667,-96.9807683333333,5.9,9.6,256,973.13,4.5,95,9.16,0.0,1000.13,345.5
2019-10-06 02:50,50.6304333333333,-96.9807666666667,5.1,9.4,255,973.09,4.6,95,9.16,0.0,1000.09,345.5
2019-10-06 03:00,50.6304416666667,-96.98073,6.0,9.8,254,973.10,4.6,95,9.16,0.0,1000.10,48.4
2019-10-06 03:10,50.6304466666667,-96.9807583333333,5.9,8.6,248,973.14,4.6,96,9.16,0.0,1000.14,48.4
2019-10-06 03:20,50.6304416666667,-96.9807616666667,5.8,8.2,246,973.15,4.7,97,9.15,0.0,1000.16,48.4
2019-10-06 03:30,50.63044,-96.9807633333333,4.8,7.6,246,973.09,4.8,98,9.15,0.0,1000.10,48.4
2019-10-06 03:40,50.6304383333333,-96.98076,4.5,7.5,251,973.00,4.8,98,9.15,0.0,1000.00,48.4
2019-10-06 03:50,50.630435,-96.9807566666667,3.9,6.8,242,973.06,4.9,99,9.14,0.0,1000.05,48.4
2019-10-06 04:00,50.6304316666667,-96.980755,4.6,6.7,237,973.13,4.8,99,9.14,0.0,1000.12,0.0
2019-10-06 04:10,50.6304383333333,-96.9807566666667,4.8,6.5,221,973.12,4.9,99,9.13,0.0,1000.11,0.0
2019-10-06 04:20,50.6304433333333,-96.9807566666667,5.0,7.5,223,973.11,4.9,99,9.12,0.0,1000.09,0.0
2019-10-06 04:30,50.6304433333333,-96.9807583333333,4.6,7.0,228,973.05,5.1,99,9.12,0.0,1000.01,0.0
2019-10-06 04:40,50.6304416666667,-96.9807583333333,4.3,6.9,238,973.01,5.3,99,9.12,0.0,999.97,0.0
2019-10-06 04:50,50.63044,-96.9807583333333,4.6,8.1,247,972.98,5.5,99,9.13,0.0,999.92,0.0
2019-10-06 05:00,50.63044,-96.9807583333333,5.3,9.6,247,972.95,5.7,99,9.13,0.0,999.88,3.2
2019-10-06 05:10,50.6304416666667,-96.98076,5.3,9.6,248,973.00,5.7,99,9.14,0.0,999.92,3.2
2019-10-06 05:20,50.63044,-96.9807583333333,5.2,8.9,243,973.01,5.6,99,9.14,0.0,999.94,3.2
2019-10-06 05:30,50.6304416666667,-96.98076,5.3,7.2,232,973.03,5.4,99,9.15,0.0,999.97,3.2
2019-10-06 05:40,50.630445,-96.980785,4.8,6.9,231,972.98,5.2,99,9.15,0.0,999.93,3.2
2019-10-06 05:50,50.6304383333333,-96.9807633333333,4.6,6.3,230,972.96,5.0,99,9.16,0.0,999.91,3.2
2019-10-06 06:00,50.6304366666667,-96.9807616666667,4.7,7.1,234,972.94,4.9,99,9.16,0.0,999.90,253.2
2019-10-06 06:10,50.630435,-96.98076,4.2,5.6,230,972.93,4.8,99,9.17,0.0,999.89,253.2
2019-10-06 06:20,50.6304366666667,-96.9807633333333,4.0,5.3,232,972.92,4.7,99,9.18,0.0,999.87,253.2
2019-10-06 06:30,50.6304366666667,-96.9807633333333,4.5,6.8,232,972.88,4.6,99,9.18,0.0,999.83,253.2
2019-10-06 06:40,50.6304366666667,-96.9807616666667,4.7,6.7,232,972.91,4.5,99,9.18,0.0,999.85,253.2
2019-10-06 06:50,50.6304366666667,-96.9807633333333,5.0,7.1,229,972.90,4.5,99,9.18,0.0,999.84,253.2
2019-10-06 07:00,50.6304366666667,-96.9807633333333,4.8,6.8,232,972.92,4.4,99,9.18,0.0,999.86,311.7
2019-10-06 07:10,50.6304366666667,-96.9807633333333,5.0,7.6,237,972.92,4.4,99,9.17,0.0,999.86,311.7
2019-10-06 07:20,50.630425,-96.98075,5.1,6.9,235,972.96,4.4,99,9.17,0.0,999.91,311.7
2019-10-06 07:30,50.63046,-96.9807716666667,4.8,6.9,245,973.08,4.4,99,9.17,0.0,1000.04,311.7
2019-10-06 07:40,50.6304416666667,-96.9807666666667,5.2,7.5,238,973.11,4.4,99,9.17,0.0,1000.09,311.7
2019-10-06 07:50,50.6304383333333,-96.9807633333333,4.7,7.6,236,973.09,4.3,99,9.17,0.0,1000.08,311.7
2019-10-06 08:00,50.630435,-96.9807633333333,4.2,6.3,239,973.08,4.4,99,9.17,0.0,1000.07,192.6
2019-10-06 08:10,50.6304366666667,-96.980765,4.8,7.3,239,973.16,4.5,99,9.17,0.0,1000.15,192.6
2019-10-06 08:20,50.6304183333333,-96.9807583333333,4.7,7.7,234,973.31,4.5,99,9.17,0.0,1000.31,192.6
2019-10-06 08:30,50.6304316666667,-96.9807616666667,4.0,6.0,227,973.31,4.6,99,9.16,0.0,1000.31,192.6
2019-10-06 08:40,50.630435,-96.9807583333333,3.6,5.3,230,973.28,4.7,99,9.16,0.0,1000.28,192.6
2019-10-06 08:50,50.630435,-96.980755,2.7,5.1,229,973.22,4.7,99,9.15,0.0,1000.21,192.6
2019-10-06 09:00,50.6304333333333,-96.980755,2.4,4.3,244,973.30,4.8,99,9.15,0.0,1000.29,142.0
2019-10-06 09:10,50.6304316666667,-96.9807533333333,3.1,4.1,232,973.37,4.9,99,9.15,0.0,1000.35,142.0
2019-10-06 09:20,50.6304466666667,-96.9807716666667,2.6,3.6,221,973.32,4.9,99,9.15,0.0,1000.30,142.0
2019-10-06 09:30,50.63044,-96.9807633333333,3.4,4.6,215,973.34,5.1,99,9.15,0.0,1000.32,142.0
2019-10-06 09:40,50.6304383333333,-96.98076,3.0,4.3,219,973.37,5.2,99,9.15,0.0,1000.35,142.0
2019-10-06 09:50,50.6304383333333,-96.980755,1.5,2.8,256,973.51,5.3,99,9.14,0.0,1000.49,142.0
2019-10-06 10:00,50.6304383333333,-96.980755,1.9,2.8,231,973.59,5.3,99,9.14,0.0,1000.56,12.6
2019-10-06 10:10,50.6304383333333,-96.9807566666667,2.5,3.7,225,973.67,5.3,99,9.14,0.0,1000.63,12.6
2019-10-06 10:20,50.6304366666667,-96.9807583333333,3.0,4.0,212,973.65,5.4,99,9.13,0.0,1000.61,12.6
2019-10-06 10:30,50.630435,-96.9807583333333,3.6,4.9,205,973.66,5.4,99,9.13,0.0,1000.62,12.6
2019-10-06 10:40,50.6304366666667,-96.98076,3.9,5.4,202,973.62,5.4,100,9.13,0.0,1000.58,12.6
2019-10-06 10:50,50.6304333333333,-96.98077,5.6,6.9,201,973.62,5.5,100,9.13,0.0,1000.57,12.6
2019-10-06 11:00,50.630415,-96.9807666666667,5.4,7.1,203,973.68,5.6,100,9.12,0.0,1000.63,360.0
2019-10-06 11:10,50.6304183333333,-96.9807466666667,5.1,7.3,212,973.75,5.7,100,9.11,0.0,1000.68,360.0
2019-10-06 11:20,50.6304266666667,-96.9807583333333,5.3,7.2,228,973.76,6.0,100,9.12,0.0,1000.67,360.0
2019-10-06 11:30,50.6304316666667,-96.9807633333333,5.2,7.9,238,973.77,6.3,100,9.12,0.0,1000.66,360.0
2019-10-06 11:40,50.630435,-96.9807566666667,5.9,8.9,248,973.81,6.7,100,9.12,0.0,1000.68,360.0
2019-10-06 11:50,50.6304383333333,-96.9807616666667,6.6,9.4,243,973.88,7.0,100,9.12,0.0,1000.73,360.0
2019-10-06 12:00,50.63044,-96.9807616666667,7.6,12.1,251,973.84,7.4,100,9.12,0.0,1000.67,360.0
2019-10-06 12:10,50.63044,-96.9807583333333,7.5,11.7,253,973.88,7.6,99,9.12,0.0,1000.71,360.0
2019-10-06 12:20,50.6304383333333,-96.98076,7.6,11.5,255,973.93,7.7,99,9.12,0.0,1000.75,360.0
2019-10-06 12:30,50.6304383333333,-96.9807616666667,7.3,11.1,257,973.91,7.7,99,9.11,0.0,1000.73,360.0
2019-10-06 12:40,50.6304466666667,-96.9807833333333,7.2,10.9,254,973.96,7.7,99,9.10,0.0,1000.77,360.0
2019-10-06 12:50,50.6304283333333,-96.980755,7.4,12.3,249,974.04,7.7,99,9.10,0.0,1000.85,360.0
2019-10-06 13:00,50.6304233333333,-96.98076,7.8,12.3,247,974.08,7.7,99,9.08,0.0,1000.89,161.1
2019-10-06 13:10,50.630425,-96.9807616666667,8.1,13.7,249,974.11,7.9,99,9.06,0.0,1000.90,161.1
2019-10-06 13:20,50.6304233333333,-96.9807633333333,8.7,13.9,248,974.19,8.0,99,9.03,0.0,1000.96,161.1
2019-10-06 13:30,50.6304283333333,-96.980765,8.4,13.0,249,974.28,8.1,99,9.02,0.0,1001.02,161.1
2019-10-06 13:40,50.6304333333333,-96.9807783333333,8.8,13.7,254,974.34,8.2,98,9.03,0.0,1001.07,161.1
2019-10-06 13:50,50.6304333333333,-96.9807766666667,9.9,17.0,257,974.46,8.3,96,9.06,0.0,1001.17,161.1
2019-10-06 14:00,50.6304333333333,-96.9807766666667,8.9,13.9,256,974.59,8.4,96,9.08,0.0,1001.29,360.0
2019-10-06 14:10,50.630435,-96.980775,9.9,15.3,259,974.72,8.4,95,9.11,0.0,1001.41,360.0
2019-10-06 14:20,50.630435,-96.980775,10.7,18.5,262,974.84,8.5,94,9.12,0.0,1001.53,360.0
2019-10-06 14:30,50.6304366666667,-96.980775,10.5,19.1,262,974.98,8.6,93,9.12,0.0,1001.68,360.0
2019-10-06 14:40,50.630435,-96.980775,10.4,19.2,267,975.08,8.7,91,9.09,0.0,1001.77,360.0
2019-10-06 14:50,50.630435,-96.980775,10.8,20.0,267,975.24,8.8,90,9.07,0.0,1001.93,360.0
2019-10-06 15:00,50.6304316666667,-96.9807683333333,9.3,18.8,268,975.45,8.8,89,9.04,0.0,1002.14,194.5
2019-10-06 15:10,50.6304283333333,-96.9807616666667,9.2,16.0,269,975.59,8.8,89,9.04,0.0,1002.28,194.5
2019-10-06 15:20,50.6304316666667,-96.98076,8.6,14.4,271,975.74,8.9,86,9.06,0.0,1002.42,194.5
2019-10-06 15:30,50.6304283333333,-96.98076,10.6,18.2,259,975.77,9.1,85,9.07,0.0,1002.44,194.5
2019-10-06 15:40,50.6304283333333,-96.980765,10.5,16.8,262,975.70,9.5,82,9.07,0.0,1002.34,194.5
2019-10-06 15:50,50.6304266666667,-96.9807666666667,11.7,22.4,264,975.75,10.0,78,9.07,0.0,1002.36,194.5
2019-10-06 16:00,50.6304133333333,-96.9807666666667,11.7,18.5,264,975.87,10.1,77,9.05,0.0,1002.48,194.5
2019-10-06 16:10,50.6304116666667,-96.9807716666667,11.2,17.7,261,975.98,10.0,77,9.03,0.0,1002.60,194.5
2019-10-06 16:20,50.6304133333333,-96.9807733333333,10.3,16.8,255,976.10,9.9,77,9.02,0.0,1002.71,194.5
2019-10-06 16:30,50.6304133333333,-96.9807716666667,12.2,17.4,248,976.20,10.1,75,9.03,0.0,1002.81,194.5
2019-10-06 16:40,50.63042,-96.980765,11.9,18.5,252,976.34,10.2,74,9.03,0.0,1002.94,194.5
2019-10-06 16:50,50.6304233333333,-96.98077,11.2,17.3,254,976.44,10.1,75,9.06,0.0,1003.05,194.5
2019-10-06 17:00,50.630425,-96.9807733333333,11.7,18.4,252,976.60,10.0,75,9.08,0.0,1003.22,142.0
2019-10-06 17:10,50.6304233333333,-96.980775,11.6,17.9,256,976.72,10.0,77,9.07,0.0,1003.34,142.0
2019-10-06 17:20,50.6304233333333,-96.9807733333333,11.3,19.2,259,976.80,9.8,79,9.06,0.0,1003.41,142.0
2019-10-06 17:30,50.6304233333333,-96.980775,10.6,18.4,259,976.91,9.5,83,9.06,0.0,1003.52,142.0
2019-10-06 17:40,50.6304216666667,-96.9807716666667,9.6,17.8,261,976.99,9.2,87,9.06,0.0,1003.60,142.0
2019-10-06 17:50,50.6304183333333,-96.980775,11.2,16.6,259,976.95,9.3,84,9.07,0.0,1003.55,142.0
2019-10-06 18:00,50.63043,-96.980765,11.6,17.6,259,976.97,9.3,84,9.07,0.0,1003.57,360.0
2019-10-06 18:10,50.6304316666667,-96.98076,10.6,18.6,256,977.02,9.5,82,9.07,0.0,1003.62,360.0
2019-10-06 18:20,50.6304316666667,-96.9807583333333,11.2,18.2,258,977.00,9.9,79,9.07,0.0,1003.57,360.0
2019-10-06 18:30,50.63043,-96.9807566666667,11.0,19.2,260,976.96,10.3,76,9.09,0.0,1003.51,360.0
2019-10-06 18:40,50.6304283333333,-96.980755,10.5,20.2,255,976.99,10.5,76,9.10,0.0,1003.54,360.0
2019-10-06 18:50,50.6304266666667,-96.980755,13.7,20.9,252,977.07,10.3,74,9.11,0.0,1003.63,360.0
2019-10-06 19:00,50.6304266666667,-96.980755,11.4,20.3,259,977.05,10.6,71,9.12,0.0,1003.59,41.3
2019-10-06 19:10,50.630425,-96.9807583333333,11.6,21.4,259,977.11,11.1,69,9.14,0.0,1003.64,41.3
2019-10-06 19:20,50.6304283333333,-96.9807633333333,12.3,21.7,261,977.14,11.7,66,9.15,0.0,1003.66,41.3
2019-10-06 19:30,50.6304366666667,-96.98076,11.5,20.5,254,977.33,11.6,67,9.16,0.0,1003.87,41.3
2019-10-06 19:40,50.630435,-96.9807683333333,12.9,23.9,260,977.28,11.7,65,9.17,0.0,1003.81,41.3
2019-10-06 19:50,50.6304183333333,-96.980765,12.1,20.0,264,977.47,11.8,59,9.19,0.0,1004.00,41.3
2019-10-06 20:00,50.6304216666667,-96.98076,12.8,21.5,263,977.54,11.9,57,9.20,0.0,1004.06,125.3
2019-10-06 20:10,50.630425,-96.9807583333333,10.7,19.8,275,977.53,12.0,57,9.23,0.0,1004.03,125.3
2019-10-06 20:20,50.6304283333333,-96.9807566666667,10.2,18.0,277,977.56,11.9,57,9.24,0.0,1004.04,125.3
2019-10-06 20:30,50.6304283333333,-96.9807566666667,11.9,18.5,277,977.56,12.1,55,9.25,0.0,1004.03,125.3
2019-10-06 20:40,50.6304283333333,-96.9807566666667,12.8,22.9,285,977.58,12.1,54,9.26,0.0,1004.05,125.3
2019-10-06 20:50,50.6304483333333,-96.9807733333333,10.0,16.7,283,977.74,11.9,55,9.27,0.0,1004.21,125.3
2019-10-06 21:00,50.63044,-96.980765,10.2,16.9,277,977.90,11.9,55,9.29,0.0,1004.36,360.0
2019-10-06 21:10,50.63044,-96.9807666666667,13.1,27.6,261,978.16,11.8,55,9.29,0.0,1004.60,360.0
2019-10-06 21:20,50.6304383333333,-96.9807683333333,12.0,21.6,251,978.25,10.4,60,9.28,0.0,1004.75,360.0
2019-10-06 21:30,50.6304383333333,-96.980765,12.4,18.8,252,978.34,10.5,59,9.29,0.0,1004.84,360.0
2019-10-06 21:40,50.6304366666667,-96.9807633333333,10.9,15.7,248,978.39,10.8,59,9.28,0.0,1004.88,360.0
2019-10-06 21:50,50.6304366666667,-96.980765,8.4,13.8,245,978.30,10.5,62,9.29,0.0,1004.80,360.0
2019-10-06 22:00,50.6304366666667,-96.980765,9.6,15.6,255,978.33,10.8,59,9.33,0.0,1004.80,345.5
2019-10-06 22:10,50.6304366666667,-96.9807633333333,9.0,14.0,260,978.41,10.7,60,9.34,0.0,1004.90,345.5
2019-10-06 22:20,50.6304366666667,-96.9807633333333,7.3,12.8,283,978.60,10.7,61,9.35,0.0,1005.08,345.5
2019-10-06 22:30,50.630435,-96.9807633333333,13.8,22.9,313,978.85,10.4,61,9.37,0.0,1005.35,345.5
2019-10-06 22:40,50.630435,-96.9807633333333,11.3,20.6,291,979.08,9.8,64,9.37,0.0,1005.63,345.5
2019-10-06 22:50,50.630435,-96.9807633333333,8.4,13.3,286,979.05,9.6,64,9.37,0.0,1005.61,345.5
2019-10-06 23:00,50.6304183333333,-96.9807666666667,8.9,13.5,282,979.22,9.7,63,9.35,0.0,1005.78,192.6
2019-10-06 23:10,50.63043,-96.9807616666667,9.1,15.6,281,979.44,9.8,62,9.32,0.0,1006.07,192.6
2019-10-06 23:20,50.6304316666667,-96.9807583333333,7.8,12.8,278,979.62,9.9,62,9.31,0.0,1006.25,192.6
2019-10-06 23:30,50.6304316666667,-96.9807633333333,7.1,11.0,279,979.78,10.1,61,9.31,0.0,1006.38,192.6
